Location: Los Gatos B&B
(42.6926°N, 77.0646°W)
Time: 19:34:02
(UTC-04:00)

Cosmos 2263 Rocket - Visible Passes

Search period start: 01 September 2014 00:00
Search period end: 11 September 2014 00:00
Orbit: 825 x 848 km, 71.0° (Epoch: 01 September)

Date Brightness Start Highest point End Pass type
(mag) Time Alt. Az. Time Alt. Az. Time Alt. Az.
01 Sep 3.6 04:12:20 10° N 04:17:32 38° ENE 04:22:41 10° SE visible
01 Sep 2.8 05:56:29 10° NW 06:01:20 31° WSW 06:06:08 10° SSW visible
01 Sep 4.9 20:48:44 10° W 20:52:56 21° NW 20:57:09 10° N visible
02 Sep 3.7 03:55:46 10° N 04:00:53 36° ENE 04:05:57 10° ESE visible
02 Sep 2.7 05:39:48 10° NW 05:44:45 34° WSW 05:49:41 10° SSW visible
02 Sep 4.8 20:31:54 10° WSW 20:36:16 23° NW 20:40:38 10° N visible
03 Sep 3.8 03:39:13 10° N 03:44:14 33° NE 03:49:13 10° ESE visible
03 Sep 2.6 05:23:06 10° NW 05:28:10 37° WSW 05:33:12 10° S visible
03 Sep 4.7 20:15:05 10° WSW 20:19:36 24° NW 20:24:06 10° N visible
04 Sep 3.8 03:22:39 10° N 03:27:35 31° NE 03:32:28 10° ESE visible
04 Sep 2.5 05:06:26 10° NW 05:11:35 40° WSW 05:16:43 10° S visible
04 Sep 4.7 19:58:17 10° WSW 20:02:55 26° NW 20:07:34 10° N visible
05 Sep 3.9 03:06:06 10° N 03:10:55 29° NE 03:15:42 10° ESE visible
05 Sep 2.4 04:49:45 10° NW 04:55:00 44° WSW 05:00:13 10° S visible
06 Sep 4.0 02:49:34 10° N 02:54:15 27° NE 02:57:50 15° ESE visible
06 Sep 2.3 04:33:05 10° NW 04:38:24 48° WSW 04:39:15 44° SW visible
07 Sep 4.0 02:33:01 10° N 02:37:35 25° NE 02:38:44 24° ENE visible
07 Sep 2.7 04:16:26 10° NW 04:20:17 40° WNW 04:20:17 40° WNW visible
08 Sep 4.1 02:16:29 10° N 02:20:47 24° NE 02:20:47 24° NE visible
08 Sep 3.4 03:59:47 10° NNW 04:02:22 28° NW 04:02:22 28° NW visible
09 Sep 4.3 01:59:57 10° N 02:03:17 21° NE 02:03:17 21° NE visible
09 Sep 3.9 03:43:08 10° NNW 03:44:54 21° NW 03:44:54 21° NW visible
10 Sep 4.5 01:43:26 10° N 01:46:04 19° NNE 01:46:04 19° NNE visible
10 Sep 4.2 03:26:29 10° NNW 03:27:42 17° NNW 03:27:42 17° NNW visible
